SCP
7 9 12 14 16 16 13 9 7 7 7 7 6 5 3 2 1 1 2 2 2 1 1 1 1 1 1 1 1 1 1 0 0 0 0 0 0 1 1 1 1 1 1
6 7 9 10 12 13 11 8 7 7 7 7 6 4 3 2 2 2 2 1 1 1 1 1 1 1 1 1 1 1 1 0 0 0 0 0 0 0 0 1 1 1 1
5 5 6 7 8 9 8 7 6 6 6 6 5 3 3 2 2 2 2 1 1 1 1 1 1 1 1 1 1 1 1 0 0 0 0 0 0 0 0 0 1 1 1
3 4 4 6 7 7 5 4 4 4 4 4 3 3 3 3 2 2 2 2 2 1 1 1 1 1 1 1 1 1 1 1 0 0 0 0 0 0 0 0 0 0 1
2 2 3 5 5 5 4 3 3 3 3 3 3 3 2 2 2 2 2 2 2 1 1 2 1 1 1 1 1 1 1 1 1 0 0 0 0 0 0 0 0 0 0
2 2 2 2 3 2 2 2 2 2 2 3 2 2 2 2 2 2 2 2 2 1 1 1 1 1 1 1 1 1 1 1 0 0 0 0 0 0 0 0 0 0 0
1 1 1 1 1 1 1 1 1 1 2 2 2 2 2 2 2 2 2 1 1 1 1 1 1 1 1 1 1 1 1 1 1 0 0 0 0 0 0 0 0 0 0
0 0 0 0 0 0 0 1 1 1 1 2 2 1 1 1 1 1 1 1 1 1 1 1 1 1 1 1 1 1 1 1 1 1 0 0 0 0 0 0 0 0 0
0 0 0 0 0 0 0 0 0 0 1 1 1 1 0 1 1 1 1 1 1 1 1 1 1 1 1 1 1 1 1 1 1 1 1 1 1 0 0 0 0 0 0
0 0 0 0 0 0 0 0 0 0 0 0 0 0 0 0 1 1 1 1 1 1 1 1 1 1 1 1 1 1 0 0 0 1 1 1 1 0 0 0 0 0 0
0 0 0 0 0 0 0 0 0 0 0 0 0 0 0 0 0 0 0 0 0 0 0 0 0 1 0 0 1 0 0 0 0 0 0 1 1 1 0 0 0 0 0
0 0 0 0 0 0 0 0 0 0 0 0 0 0 0 0 0 0 0 0 0 0 0 0 0 0 0 0 0 0 0 0 0 0 0 0 1 1 0 0 0 0 0
0 0 0 0 0 0 0 0 0 0 0 0 0 0 0 0 0 0 0 0 0 0 0 0 0 0 0 0 0 0 0 0 0 0 0 0 0 0 0 0 0 0 0
0 0 0 0 0 0 0 0 0 0 0 0 0 0 0 0 0 0 0 0 0 0 0 0 0 0 0 0 0 0 0 0 0 0 0 0 0 0 0 0 0 0 0
0 0 0 0 0 0 0 0 0 0 0 0 0 0 0 0 0 0 0 0 0 0 0 0 0 0 0 0 0 0 0 0 0 0 0 0 0 0 0 0 0 0 0
0 0 0 0 0 0 0 0 0 0 0 0 0 0 0 0 0 0 0 0 0 0 0 0 0 0 0 0 0 0 0 0 0 0 0 0 0 0 0 0 0 0 0
0 0 0 0 0 0 0 0 0 0 0 0 0 0 0 0 0 0 0 0 0 0 0 0 0 0 0 0 0 0 0 0 0 0 0 0 0 0 0 0 0 0 0
0 0 0 0 0 0 0 0 0 0 0 0 0 0 0 0 0 0 0 0 0 0 0 0 0 0 0 0 0 0 0 0 0 0 0 0 0 0 0 0 0 0 0
0 0 0 0 0 0 0 0 0 0 0 0 0 0 0 0 0 0 0 0 0 0 0 0 0 0 0 0 0 0 0 0 0 0 0 0 0 0 0 0 0 0 0
0 0 0 0 0 0 0 0 0 0 0 0 0 0 0 0 0 0 0 0 0 0 0 0 0 0 0 0 0 0 0 0 0 0 0 0 0 0 0 0 0 0 0
0 0 0 0 0 0 0 0 0 0 0 0 0 0 0 0 0 0 0 0 0 0 0 0 0 0 0 0 0 0 0 0 0 0 0 0 0 0 0 0 0 0 0
0 0 0 0 0 0 0 0 0 0 0 0 0 0 0 0 0 0 0 0 0 0 0 0 0 0 0 0 0 0 0 0 0 0 0 0 0 0 0 0 0 0 0
0 0 0 0 0 0 0 0 0 0 0 0 0 0 0 0 0 0 0 0 0 0 0 0 0 0 0 0 0 0 0 0 0 0 0 0 0 0 0 0 0 0 0
0 0 0 0 0 0 0 0 0 0 0 0 0 0 0 0 0 0 0 0 0 0 0 0 0 0 0 0 0 0 0 0 0 0 0 0 0 0 0 0 0 0 0
0 0 0 0 0 0 0 0 0 0 0 0 0 0 0 0 0 0 0 0 0 0 0 0 0 0 0 0 0 0 0 0 0 0 0 0 0 0 0 0 0 0 0
0 0 0 0 0 0 0 0 0 0 0 0 0 0 0 0 0 0 0 0 0 0 0 0 0 0 0 0 0 0 0 0 0 0 0 0 0 0 0 0 0 0 0
Wind_Speed
6 6 8 8 9 7 5 6 4 1 1 1 2 2 1 1 1 2 4 5 5 4 4 3 2 1 1 1 1 1 1 1 1 1 3 4 4 4 5 4 4 5 6
7 7 8 8 8 8 5 3 4 3 2 2 2 2 2 2 2 1 3 4 5 5 4 4 3 2 2 1 1 1 0 1 0 1 1 3 5 4 3 3 3 5 4
8 8 8 8 8 6 5 3 2 1 0 1 1 1 2 2 1 0 1 2 3 4 4 5 4 4 3 2 2 2 2 1 1 1 2 1 2 4 4 3 2 3 3
8 8 10 10 9 7 6 5 4 4 4 4 3 3 2 0 1 1 2 2 2 2 3 4 4 4 3 3 3 3 3 2 1 1 1 3 3 2 4 4 3 3 3
8 8 9 8 8 8 7 6 6 6 6 5 4 4 3 1 1 1 1 2 2 2 2 3 3 3 3 4 4 3 3 3 3 2 2 1 2 3 3 4 4 3 3
5 5 5 5 6 6 6 6 6 5 5 5 5 5 4 3 3 3 3 2 2 2 2 2 2 2 3 4 4 4 5 4 4 3 3 3 2 2 2 4 4 4 4
2 2 3 3 3 4 3 4 4 4 3 4 4 3 3 2 2 2 2 3 2 2 3 2 2 2 3 4 4 4 5 5 5 4 4 4 4 4 3 3 4 4 3
1 1 1 1 2 2 2 2 2 2 2 2 2 2 2 1 1 2 2 2 2 3 3 3 3 3 3 4 4 4 5 5 5 6 5 4 4 4 4 4 3 4 3
1 1 1 0 1 1 1 1 1 0 1 2 2 2 2 2 2 3 2 2 2 3 3 4 4 4 4 4 4 4 5 5 6 6 6 5 4 4 4 4 4 3 4
1 1 1 1 1 2 2 1 2 2 2 2 3 2 3 3 3 3 3 3 4 4 4 4 4 5 4 5 4 4 5 5 6 5 6 6 4 4 4 4 4 4 4
3 4 4 3 3 2 2 2 2 3 3 4 4 4 4 4 4 4 4 4 4 4 5 5 5 5 5 5 5 6 5 6 6 6 6 7 6 4 4 4 3 4 4
5 5 5 4 3 3 4 4 4 5 6 5 5 5 6 5 5 6 6 6 5 5 6 6 6 6 6 5 5 6 6 6 7 7 7 7 6 6 4 4 4 4 5
6 6 5 5 5 5 6 6 6 7 7 6 6 6 6 6 7 7 7 6 6 6 6 6 6 6 6 6 6 6 7 7 7 7 7 7 6 6 5 5 5 4 4
5 5 5 6 6 7 7 7 8 8 8 7 7 7 8 8 8 8 7 7 7 6 6 6 6 6 6 6 6 6 6 7 7 7 7 7 7 7 6 5 5 4 4
5 6 6 6 7 7 7 8 8 8 8 8 8 9 9 8 8 8 8 7 7 7 6 6 6 5 5 5 5 5 6 6 6 6 6 7 9 10 8 6 5 5 4
7 8 8 8 8 8 8 8 8 9 8 8 9 9 8 8 8 8 7 7 7 7 6 6 6 6 6 7 9 7 6 6 6 7 6 6 8 9 11 11 10 9 8
9 9 9 8 9 9 9 9 9 8 8 8 9 8 8 8 8 8 7 7 7 7 6 7 7 7 8 11 11 11 6 6 6 6 5 5 5 6 5 6 8 9 10
10 10 9 9 9 8 8 8 8 7 8 8 8 8 8 8 8 7 7 7 6 6 6 7 7 7 9 11 11 11 7 6 6 6 6 6 5 5 5 5 4 4 5
10 10 9 10 9 9 8 8 7 8 8 8 8 8 8 8 7 7 8 7 6 6 6 6 7 7 8 11 11 10 4 5 6 5 5 5 6 7 8 6 5 4 2
9 9 9 9 9 9 8 8 8 8 9 9 8 8 8 8 8 8 8 7 6 7 6 7 7 7 8 10 12 9 4 4 4 3 3 5 6 7 8 6 6 6 4
10 10 10 9 10 10 9 9 9 10 9 9 8 8 8 8 8 7 6 6 6 6 6 6 6 6 8 9 11 10 4 4 4 3 3 3 6 7 7 6 6 7 6
11 10 10 11 11 10 10 10 11 10 9 9 9 8 8 8 8 5 5 5 5 5 5 5 5 4 5 6 7 8 7 6 4 4 3 3 6 7 7 6 7 9 7
11 11 12 13 12 10 10 12 12 10 10 9 9 8 8 7 6 6 5 5 4 4 4 4 4 4 3 3 4 4 5 6 4 3 5 6 7 6 6 7 9 8 5
12 12 13 13 14 13 12 11 12 10 10 10 9 7 7 7 6 4 4 4 4 4 4 4 4 3 2 1 1 2 2 3 3 2 4 6 6 4 5 6 5 4 4
12 12 13 14 15 14 13 13 12 10 9 9 8 7 6 6 5 5 4 5 5 5 5 4 4 3 3 4 5 3 2 3 3 4 3 3 3 3 3 3 4 4 4
13 14 15 15 15 14 14 13 11 9 8 8 7 5 4 4 4 3 4 5 5 7 8 8 5 3 4 5 5 5 4 5 7 5 4 4 3 4 4 4 3 4 4
Wind_Direction
73 68 81 92 96 84 59 66 64 38 116 120 126 131 173 191 188 178 165 165 165 160 161 166 185 169 164 207 238 211 263 275 278 336 316 301 276 257 249 241 235 234 230
73 58 59 63 75 92 103 105 154 193 198 171 157 164 172 202 196 191 182 174 166 171 176 176 185 184 175 199 221 156 176 274 78 131 329 328 331 325 286 262 241 245 239
75 59 58 60 71 81 100 138 168 157 356 79 88 77 53 37 36 346 258 222 184 192 192 192 190 194 183 195 208 185 170 220 275 171 170 199 275 309 312 304 281 274 259
52 56 59 57 55 54 59 56 53 49 36 34 60 87 101 135 245 240 254 262 232 227 228 221 209 201 194 200 210 187 176 174 231 267 208 201 200 236 302 312 310 304 284
46 57 60 63 62 59 57 56 52 44 37 38 48 57 52 2 314 325 318 301 289 269 250 241 223 216 210 212 212 198 193 188 198 208 219 232 231 211 220 283 306 318 294
40 58 65 69 68 67 64 62 58 42 38 43 42 41 36 14 359 351 339 323 307 296 296 269 236 226 218 219 218 213 208 206 210 211 204 203 215 221 217 252 280 291 289
20 61 66 72 80 80 79 77 76 54 35 40 38 32 26 21 6 339 333 334 328 315 305 307 258 242 235 231 221 219 223 215 215 218 219 214 216 210 210 234 263 273 285
342 76 127 118 119 118 109 93 82 57 20 33 9 356 8 2 319 310 314 309 292 287 298 309 291 269 253 245 232 229 228 224 223 230 226 223 225 211 207 211 232 279 286
350 345 339 91 144 149 153 142 123 62 323 316 306 311 320 308 295 295 292 286 286 292 310 305 297 285 266 253 242 236 236 231 229 231 230 228 228 218 215 207 199 218 268
325 294 279 256 217 190 187 163 167 206 248 266 266 269 268 267 270 279 289 290 292 297 302 302 292 284 277 267 254 251 246 240 238 231 230 232 229 223 216 212 211 208 224
263 262 251 239 235 237 240 248 254 257 261 258 255 264 267 268 270 269 268 268 273 282 285 284 285 279 271 265 258 253 250 244 244 241 233 233 225 221 221 215 215 215 211
264 264 267 273 280 280 274 267 263 261 258 254 255 259 263 264 263 260 261 262 267 270 272 273 275 275 274 267 261 261 258 249 247 242 235 236 231 222 218 215 220 221 214
301 306 311 306 293 282 275 270 265 261 259 255 252 257 260 257 256 254 255 257 259 266 271 269 267 269 271 269 264 259 258 250 246 241 234 232 224 226 222 218 221 223 222
322 326 311 294 284 278 273 270 268 263 259 254 249 251 252 250 249 250 252 251 249 252 259 264 261 260 264 266 266 268 262 254 248 242 235 228 220 221 219 222 219 211 210
320 304 287 277 275 274 272 268 266 264 258 251 246 245 245 245 246 247 248 248 248 250 247 255 260 258 259 260 266 271 273 262 257 248 238 231 227 222 216 216 210 201 202
293 287 283 280 275 271 267 265 264 262 257 252 251 250 248 246 245 246 246 247 247 248 245 245 249 252 260 271 277 269 265 264 256 251 243 237 233 226 221 220 216 207 201
291 287 282 272 268 265 262 263 261 262 259 257 258 255 248 245 247 249 246 239 239 237 241 245 245 247 254 262 269 270 259 254 253 244 236 239 229 217 213 215 218 216 211
293 288 280 276 273 271 272 272 272 270 266 264 262 259 254 248 243 243 243 239 234 231 236 243 244 246 256 261 265 267 262 251 251 241 234 231 220 211 202 204 207 204 204
289 286 284 283 284 284 283 284 281 278 275 272 269 266 261 259 251 244 244 241 234 235 236 239 242 243 256 260 259 260 249 248 252 244 235 228 217 209 197 190 185 183 196
299 300 300 299 298 294 291 289 287 285 280 278 275 273 269 263 257 249 245 242 235 237 240 242 241 240 248 255 254 250 231 239 243 240 237 225 210 198 187 184 173 174 174
309 310 308 304 298 295 293 289 288 283 280 281 280 276 270 263 257 252 248 242 240 241 242 247 250 246 246 253 251 244 218 218 222 222 220 213 200 189 184 177 172 171 158
315 312 308 303 299 298 295 291 287 283 280 278 277 275 271 270 275 251 248 245 240 244 244 245 258 259 255 248 247 237 214 203 207 218 208 193 186 181 175 165 152 149 142
313 312 310 308 306 300 293 289 288 287 285 280 275 272 271 267 262 252 248 249 241 238 241 233 241 261 263 250 230 214 204 207 203 203 183 168 170 169 168 155 144 143 139
316 314 313 312 310 306 299 290 289 286 284 282 277 272 268 265 261 253 244 239 235 232 231 225 228 239 242 220 200 183 179 188 180 162 152 150 155 157 143 140 136 131 134
316 315 315 313 312 312 308 303 296 290 286 283 277 272 263 258 260 254 245 241 233 215 210 216 208 199 215 218 193 180 184 184 171 145 137 139 141 146 141 130 122 123 128
320 321 319 317 316 315 313 311 305 296 291 289 281 271 262 257 253 256 276 264 249 246 235 226 208 207 206 184 181 185 180 170 158 149 149 147 147 154 154 141 128 126 130